Siteam Jupiter — A8JA6 — position and weather

sailwx.info

Track history (hours):
 
Tides and Currents Weather Stations Pressure Air Temp Water Temp Dewpoint Dewpoint Depression Visibility Wind Speed Wind Dir Waves Ship Positions

Siteam Jupiter

Last reported at 2014-Oct-28 19:20 UTC. Time now 2014-Dec-21 18:00 UTC.
Position S 34°45' W 057°36'.
Warning: this ship's position is 53 days out of date.

Length 181 m; draft 6.4 m.

Type: Tanker. MMSI: 636091062.

Date/timePositionNaut miles runAvg speedWind from/ knotsBaromVisibWave heightAir tempDewpointWater temp
2014-Oct-28 19:20S 34°45' W 057°36'810.8
2014-Oct-28 18:33S 34°44' W 057°46'2 1.9
2014-Oct-28 17:33S 34°46' W 057°48'0 0.1
2014-Oct-28 16:34S 34°46' W 057°48'0 0.0
2014-Oct-28 15:33S 34°46' W 057°48'2 2.5
2014-Oct-28 14:33S 34°44' W 057°50'8 8.3
2014-Oct-28 13:34S 34°41' W 057°59'1110.9
2014-Oct-28 12:34S 34°37' W 058°12'7 6.2
2014-Oct-28 11:27S 34°38' W 058°20'0 0.0
2014-Oct-27 09:33S 34°38' W 058°20'0 0.0
2014-Oct-27 08:09S 34°38' W 058°20'0 0.0
2014-Oct-26 21:33S 34°38' W 058°20'0 0.0
2014-Oct-26 20:24S 34°38' W 058°20'0 0.0
2014-Oct-26 10:33S 34°38' W 058°20'4 3.6
2014-Oct-26 09:30S 34°36' W 058°16'1312.1
2014-Oct-26 08:28S 34°40' W 058°01'8 9.0
2014-Oct-26 07:33S 34°44' W 057°52'0 0.1
2014-Oct-26 06:32S 34°44' W 057°52'0 0.1
2014-Oct-26 05:32S 34°44' W 057°52'0 0.0
2014-Oct-26 04:32S 34°44' W 057°52'0 0.0
2014-Oct-26 03:32S 34°44' W 057°52'0 0.0
2014-Oct-26 02:32S 34°44' W 057°52'1 1.0
2014-Oct-26 01:33S 34°43' W 057°53'1211.7
2014-Oct-26 00:33S 34°38' W 058°06'1111.0
2014-Oct-25 23:33S 34°33' W 058°18'1110.6
2014-Oct-25 22:33S 34°25' W 058°26'10 9.8
2014-Oct-25 21:33S 34°18' W 058°34'20 9.9
2014-Oct-25 19:33S 34°09' W 058°55'  
2014-Oct-22 02:28S 34°20' W 058°29'6 6.3
2014-Oct-22 01:33S 34°25' W 058°26'7 6.7
2014-Oct-22 00:33S 34°30' W 058°22'8 8.2
2014-Oct-21 23:33S 34°36' W 058°15'9 9.1
2014-Oct-21 22:33S 34°39' W 058°04'10 9.5
2014-Oct-21 21:33S 34°42' W 057°53'7 7.0
2014-Oct-21 20:33S 34°44' W 057°45'9 9.4
2014-Oct-21 19:33S 34°46' W 057°34'9 9.3
2014-Oct-21 18:33S 34°50' W 057°24'9 9.1
2014-Oct-21 17:33S 34°56' W 057°16'28 8.2
2014-Oct-21 14:11S 35°10' W 056°46'17 9.0
2014-Oct-21 12:19S 35°10' W 056°26'  
Track history (hours):
 
Tides and Currents Weather Stations Pressure Air Temp Water Temp Dewpoint Dewpoint Depression Visibility Wind Speed Wind Dir Waves Ship Positions

Siteam Jupiter

Last reported at 2014-Oct-28 19:20 UTC. Time now 2014-Dec-21 18:00 UTC.
Position S 34°45' W 057°36'.
Warning: this ship's position is 53 days out of date.

Length 181 m; draft 6.4 m.

Type: Tanker. MMSI: 636091062.

Date/timePositionNaut miles runAvg speedWind from/ knotsBaromVisibWave heightAir tempDewpointWater temp
2014-Oct-28 19:20S 34°45' W 057°36'810.8
2014-Oct-28 18:33S 34°44' W 057°46'2 1.9
2014-Oct-28 17:33S 34°46' W 057°48'0 0.1
2014-Oct-28 16:34S 34°46' W 057°48'0 0.0
2014-Oct-28 15:33S 34°46' W 057°48'2 2.5
2014-Oct-28 14:33S 34°44' W 057°50'8 8.3
2014-Oct-28 13:34S 34°41' W 057°59'1110.9
2014-Oct-28 12:34S 34°37' W 058°12'7 6.2
2014-Oct-28 11:27S 34°38' W 058°20'0 0.0
2014-Oct-27 09:33S 34°38' W 058°20'0 0.0
2014-Oct-27 08:09S 34°38' W 058°20'0 0.0
2014-Oct-26 21:33S 34°38' W 058°20'0 0.0
2014-Oct-26 20:24S 34°38' W 058°20'0 0.0
2014-Oct-26 10:33S 34°38' W 058°20'4 3.6
2014-Oct-26 09:30S 34°36' W 058°16'1312.1
2014-Oct-26 08:28S 34°40' W 058°01'8 9.0
2014-Oct-26 07:33S 34°44' W 057°52'0 0.1
2014-Oct-26 06:32S 34°44' W 057°52'0 0.1
2014-Oct-26 05:32S 34°44' W 057°52'0 0.0
2014-Oct-26 04:32S 34°44' W 057°52'0 0.0
2014-Oct-26 03:32S 34°44' W 057°52'0 0.0
2014-Oct-26 02:32S 34°44' W 057°52'1 1.0
2014-Oct-26 01:33S 34°43' W 057°53'1211.7
2014-Oct-26 00:33S 34°38' W 058°06'1111.0
2014-Oct-25 23:33S 34°33' W 058°18'1110.6
2014-Oct-25 22:33S 34°25' W 058°26'10 9.8
2014-Oct-25 21:33S 34°18' W 058°34'20 9.9
2014-Oct-25 19:33S 34°09' W 058°55'  
2014-Oct-22 02:28S 34°20' W 058°29'6 6.3
2014-Oct-22 01:33S 34°25' W 058°26'7 6.7
2014-Oct-22 00:33S 34°30' W 058°22'8 8.2
2014-Oct-21 23:33S 34°36' W 058°15'9 9.1
2014-Oct-21 22:33S 34°39' W 058°04'10 9.5
2014-Oct-21 21:33S 34°42' W 057°53'7 7.0
2014-Oct-21 20:33S 34°44' W 057°45'9 9.4
2014-Oct-21 19:33S 34°46' W 057°34'9 9.3
2014-Oct-21 18:33S 34°50' W 057°24'9 9.1
2014-Oct-21 17:33S 34°56' W 057°16'28 8.2
2014-Oct-21 14:11S 35°10' W 056°46'17 9.0
2014-Oct-21 12:19S 35°10' W 056°26'  

Dump ship's entire track history